Location: Bronnegerveen
(52.9548°N, 6.8388°E)
Time: 02:02:28
(UTC+00:00)

USA 229 - Pass Details

Date: 15 June 2025
Orbit: 856 x 1355 km, 63.4° (Epoch: 26 June)

Event Time Altitude Azimuth Distance (km) Brightness Sun altitude
Rises 00:08:57 0° 311° (NW) 3,886 7.1 -13.3°
Reaches altitude 10° 00:11:30 10° 313° (NW) 2,995 6.5 -13.3°
Maximum altitude 00:18:46 84° 42° (NE) 1,231 4.1 -13.1°
Drops below altitude 10° 00:26:53 10° 131° (SE) 3,319 6.0 -12.8°
Sets 00:29:49 0° 132° (SE) 4,327 6.6 -12.7°
